Weather History for KHUL - December, 2013

Change the Weather History Date:

Monday, December 9, 2013

  Actual Average Record
Temperature  
Mean Temperature 12 °F 22 °F  
Max Temperature 18 °F 31 °F 50 °F (1974)
Min Temperature 5 °F 14 °F -16 °F (1970)
Degree Days  
Heating Degree Days 53 43  
Month to date heating degree days 335 369  
Since 1 July heating degree days 2336 2477  
Cooling Degree Days 0 0  
Month to date cooling degree days 0 0  
Year to date cooling degree days 198 191  
Moisture  
Dew Point 9 °F    
Average Humidity 69    
Maximum Humidity 88    
Minimum Humidity 49    
Precipitation  
Precipitation 0.12 in 0.12 in 1.03 in (1969)
Month to date precipitation 0.61 1.08  
Year to date precipitation 40.56 37.77  
Sea Level Pressure  
Sea Level Pressure 30.17 in    
Wind  
Wind Speed 4 mph (SE)    
Max Wind Speed 12 mph    
Max Gust Speed 16 mph    
Visibility 5 miles    
Events Fog , Snow    
T = Trace of Precipitation, MM = Missing Value Source: NWS Daily Summary

Daily Weather History Graph

Daily Weather History Graph

Search for Another Location

Airport or City:

Trip Planner

Search our weather history database for the weather conditions in past years. The results will help you decide how hot, cold, wet, or windy it might be!

Date:

Astronomy

Dec. 09, 2013 Rise Set
Actual Time 7:01 AM EST 3:45 PM EST
Civil Twilight 6:27 AM EST 4:19 PM EST
Nautical Twilight 5:49 AM EST 4:57 PM EST
Astronomical Twilight 5:13 AM EST 5:34 PM EST
Moon 11:33 AM EST (12/9) 11:57 PM EST (12/9)
Length of Visible Light 9h 52m
Length of Day
8h 43m
Waxing Crescent, 51% of the Moon is Illuminated
Dec 9
Waxing Crescent
Dec 17
Full
Dec 25
Last Quarter
Jan 1
New
Jan 7
First Quarter

Hourly Weather History & Observations

Time (EST) Temp. Windchill Dew Point Humidity Pressure Visibility Wind Dir Wind Speed Gust Speed Precip Events Conditions
12:53 AM 7.0 °F - 3.0 °F 84% 30.53 in 10.0 mi Calm Calm - N/A   Clear
1:53 AM 6.1 °F - 3.0 °F 87% 30.55 in 10.0 mi Calm Calm - N/A   Clear
2:53 AM 6.1 °F - 3.0 °F 87% 30.54 in 10.0 mi Calm Calm - N/A   Clear
3:53 AM 8.1 °F - 5.0 °F 87% 30.52 in 10.0 mi Calm Calm - N/A   Scattered Clouds
4:53 AM 10.9 °F - 6.1 °F 81% 30.51 in 10.0 mi Calm Calm - N/A   Clear
5:53 AM 10.9 °F - 6.1 °F 81% 30.51 in 10.0 mi Calm Calm - N/A   Mostly Cloudy
6:53 AM 12.0 °F - 7.0 °F 80% 30.49 in 10.0 mi Calm Calm - N/A   Overcast
7:53 AM 12.9 °F 5.2 °F 6.1 °F 74% 30.46 in 10.0 mi East 4.6 mph - N/A   Mostly Cloudy
8:53 AM 14.0 °F - 3.9 °F 64% 30.45 in 10.0 mi Calm Calm - N/A   Overcast
9:53 AM 16.0 °F 4.4 °F 3.9 °F 59% 30.39 in 10.0 mi ESE 9.2 mph - N/A   Overcast
10:53 AM 17.1 °F 8.7 °F 3.9 °F 56% 30.33 in 10.0 mi SSE 5.8 mph - N/A   Overcast
11:53 AM 18.0 °F 9.8 °F 1.9 °F 50% 30.27 in 10.0 mi SE 5.8 mph - N/A   Overcast
12:53 PM 17.1 °F 6.6 °F 3.0 °F 54% 30.26 in 4.0 mi SE 8.1 mph - 0.00 in Snow Light Snow
1:07 PM 16.0 °F 8.8 °F 5.0 °F 62% 30.21 in 2.0 mi SSE 4.6 mph - 0.00 in Snow Light Snow
1:14 PM 16.0 °F 6.3 °F 7.0 °F 68% 30.21 in 1.5 mi SSE 6.9 mph - 0.00 in Snow Light Snow
1:26 PM 16.0 °F 5.3 °F 7.0 °F 68% 30.20 in 3.0 mi SSE 8.1 mph - 0.00 in Snow Light Snow
1:38 PM 16.0 °F 8.8 °F 7.0 °F 68% 30.20 in 4.0 mi SE 4.6 mph - 0.00 in Snow Light Snow
1:45 PM 16.0 °F 7.4 °F 7.0 °F 68% 30.20 in 1.8 mi Variable 5.8 mph - 0.00 in Snow Light Snow
1:53 PM 16.0 °F 6.3 °F 8.1 °F 71% 30.24 in 1.0 mi SSE 6.9 mph - 0.00 in Snow Light Snow
2:14 PM 15.1 °F 4.2 °F 10.0 °F 80% 30.18 in 0.5 mi SE 8.1 mph - 0.00 in Snow Snow
2:31 PM 15.1 °F 6.4 °F 10.9 °F 84% 30.17 in 0.2 mi ESE 5.8 mph - 0.03 in Fog , Snow Heavy Snow
2:53 PM 15.1 °F 5.2 °F 10.9 °F 84% 30.18 in 0.5 mi ESE 6.9 mph - 0.06 in Fog , Snow Light Snow
3:03 PM 15.1 °F 7.7 °F 10.9 °F 84% 30.13 in 0.5 mi East 4.6 mph - 0.00 in Fog , Snow Snow
3:53 PM 15.1 °F 7.7 °F 10.9 °F 84% 30.14 in 0.5 mi ESE 4.6 mph - 0.04 in Fog , Snow Snow
4:00 PM 15.1 °F 9.4 °F 10.9 °F 84% 30.09 in 0.5 mi ESE 3.5 mph - 0.01 in Fog , Snow Snow
4:16 PM 15.1 °F 9.4 °F 10.9 °F 84% 30.09 in 1.0 mi East 3.5 mph - 0.02 in Snow Light Snow
4:28 PM 15.1 °F 7.7 °F 10.9 °F 84% 30.08 in 1.8 mi Variable 4.6 mph - 0.02 in Snow Light Snow
4:35 PM 15.1 °F 7.7 °F 10.9 °F 84% 30.08 in 2.0 mi East 4.6 mph - 0.02 in Snow Light Snow
4:53 PM 15.1 °F 7.7 °F 10.9 °F 84% 30.10 in 2.5 mi Variable 4.6 mph - 0.02 in Snow Light Snow
5:23 PM 15.1 °F 9.4 °F 10.9 °F 84% 30.04 in 2.5 mi Variable 3.5 mph - 0.00 in Snow Light Snow
5:32 PM 15.1 °F 4.2 °F 10.9 °F 84% 30.02 in 4.0 mi East 8.1 mph - 0.00 in   Overcast
5:53 PM 15.1 °F 6.4 °F 10.9 °F 84% 30.04 in 6.0 mi Variable 5.8 mph - 0.00 in   Overcast
6:53 PM 16.0 °F 4.4 °F 12.0 °F 84% 29.98 in 7.0 mi ESE 9.2 mph 16.1 mph 0.00 in   Overcast
7:53 PM 17.1 °F 10.0 °F 12.9 °F 84% 29.94 in 10.0 mi ESE 4.6 mph - 0.00 in   Overcast
8:53 PM 17.1 °F 10.0 °F 12.9 °F 84% 29.90 in 9.0 mi SE 4.6 mph - 0.00 in   Overcast
9:18 PM 17.1 °F - 14.0 °F 88% 29.84 in 2.5 mi Calm Calm - 0.00 in Snow Light Snow
9:20 PM 17.1 °F 11.7 °F 14.0 °F 88% 29.84 in 3.0 mi Variable 3.5 mph - 0.00 in Snow Light Snow
9:53 PM 17.1 °F - 14.0 °F 88% 29.87 in 8.0 mi Calm Calm - 0.00 in   Overcast
10:17 PM 17.1 °F 11.7 °F 14.0 °F 88% 29.82 in 3.0 mi Variable 3.5 mph - 0.00 in Snow Light Snow
10:40 PM 18.0 °F - 14.0 °F 84% 29.82 in 3.0 mi Calm Calm - 0.00 in   Overcast
10:53 PM 18.0 °F - 14.0 °F 84% 29.84 in 8.0 mi Calm Calm - 0.00 in   Overcast
11:53 PM 18.0 °F 12.7 °F 14.0 °F 84% 29.81 in 6.0 mi Variable 3.5 mph - 0.00 in   Overcast